Location: Cussy
(47.0410°N, 4.6412°E)
Time: 02:37:20
(UTC+00:00)

FENGYUN 1C DEB - Visible Passes

Search period start: 15 June 2021 00:00
Search period end: 25 June 2021 00:00
Orbit: 786 x 1022 km, 98.4° (Epoch: 14 June)

Date Brightness Start Highest point End Pass type
(mag) Time Alt. Az. Time Alt. Az. Time Alt. Az.
18 Jun ? 02:01:55 10° ENE 02:03:02 11° E 02:04:08 10° E visible
19 Jun ? 02:05:03 10° ENE 02:06:51 12° E 02:08:37 10° ESE visible
20 Jun ? 02:08:24 10° ENE 02:10:39 13° E 02:12:52 10° ESE visible
21 Jun ? 02:11:50 10° NE 02:14:27 14° E 02:17:02 10° ESE visible
22 Jun ? 02:15:19 10° NE 02:18:15 15° E 02:21:07 10° ESE visible
23 Jun ? 02:18:50 10° NE 02:22:03 16° E 02:25:10 10° SE visible
24 Jun ? 02:22:24 10° NE 02:25:50 17° E 02:29:11 10° SE visible
